Location: ?
(35.4554°N, 139.3092°E)
Time: 21:22:42
(UTC+00:00)

ATLAS 5 CENTAUR R/B - Pass Details

Date: 21 April 2021
Orbit: 516 x 1141 km, 63.3° (Epoch: 02 May)

Event Time Altitude Azimuth Distance (km) Brightness Sun altitude
Rises 15:12:34 0° 343° (NNW) 3,278 5.9 -41.9°
Reaches altitude 10° 15:15:31 10° 0° (N) 2,464 5.2 -41.8°
Enters shadow 15:19:38 20° 46° (NE) 1,982 4.5 -41.6°
